Tracking 29892 objects as of 21-Nov-2024
HD Live streaming from Space Station
objects crossing your sky now

ONEWEB-0649

Track ONEWEB-0649 now!
10-day predictions
ONEWEB-0649 is classified as:


NORAD ID: 55812
Int'l Code: 2023-029S
Perigee: 1,191.6 km
Apogee: 1,194.3 km
Inclination: 87.9 °
Period: 109.1 minutes
Semi major axis: 7563 km
RCS: Unknown
Launch date: March 9, 2023
Source: United Kingdom (UK)
Launch site: AIR FORCE EASTERN TEST RANGE (AFETR)
Your satellite tracking list
Your tracking list is empty




NASA's NSSDC Master Catalog

Two Line Element Set (TLE):
1 55812U 23029S   24325.22514079 -.00000341  00000-0 -88305-3 0  9990
2 55812  87.9189  59.1069 0001779  83.5381 276.5954 13.19724403 83224
Source of the keplerian elements: AFSPC